www.pogodaiklimat.ru

Погода и климат >> Архив погоды >> Китай >> Lu Shan


ПОГОДА в Lu Shan

  • Прогноз погоды в Lu Shan
  • Монитор погоды в Lu Shan
  • Климат города

АРХИВ ПОГОДЫ в Lu Shan

Время (UTC), дата Ветер
(напр.,м/с)
 
Видим.   Явления Облачность Т
(С)
Тd
(С)
f
(%)
Тe
(С)
Тes
(С)
Комфортность P
(гПа)
Po
(гПа)
Тmin
(С)
Tmax
(С)
R
(мм)
R24
(мм)
S
(см)
03 19.09 Ю 4 17 км 9/9 300 м
[]
+21.8 +15.9 69 +25 +26 комфорт 1011.5 1012.0
06 19.09 Ю 4 9000 м слабый ливневой дождь 10/10 100 м
[]
+18.5 +17.9 96 +19 +19 1011.1 1011.0 +18.2 1
09 19.09 Ю 3 6000 м слабый ливневой дождь ?/? +19.0 +19.0 100 +21 +21 комфорт 1010.7 1011.0
12 19.09 Ю 3 3300 м слабый ливневой дождь {туман} ?/? +19.0 +19.0 100 +21 +21 комфорт 1011.2 1011.0 18
18 19.09 Ю 4 18 км ?/? +18.6 +18.6 100 +20 +20 1011.8 1012.0 +22.2 2
21 19.09 Ю 1 7000 м ?/? +18.5 +18.5 100 +21 +21 комфорт 1010.6 1011.0
00 20.09 С 1 11 км слабый дождь ?/? +18.5 +18.5 100 +21 +21 комфорт 1011.9 1012.0 3
03 20.09 штиль 0 1400 м слабый дождь {туман} ?/? +18.2 +18.2 100 +19 +19 1012.6 1013.0
06 20.09 СВ 3 300 м слабый дождь {туман} ?/? +16.6 +16.6 100 +16 +16 1012.2 1012.5 +16.3 4
09 20.09 С 4 200 м туман {дождь} ясно +16.9 +16.9 100 +16 +17 1011.9 1012.0
12 20.09 В 5 1500 м дымка {дождь, туман} 9/9
[]
+15.3 +15.3 100 +14 +14 1013.2 1013.0 0.1
18 20.09 Ю 2 22 км ?/? +15.7 +15.7 100 +16 +16 1012.9 883.8 +18.9 0.2
21 20.09 Ю 2 24 км ?/? +16.7 +16.7 100 +17 +17 1012.5 1013.0
00 21.09 СЗ 1 1700 м слабый дождь ?/? +16.9 +16.9 100 +18 +18 1014.0 1035.4 0.2
03 21.09 ЮЗ 1 20 км {дождь, туман} 9/9 300 м
[]
+20.5 +17.5 83 +25 +27 комфорт 1013.5 1014.0
06 21.09 С 2 4600 м дымка {дождь, туман} ?/? +21.0 +18.8 87 +26 +26 душно 1011.7 1012.0 +14.3 0.0
09 21.09 С 2 <100 м туман ?/? +17.5 +17.5 100 +18 +18 1012.4 1012.0
12 21.09 С 2 9000 м в посл. час туман 9/9 100 м
[]
+15.8 +15.8 100 +16 +16 1013.5 1014.0
18 21.09 Ю 3 22 км ?/? +17.5 +17.5 100 +17 +17 1011.8 1012.0 +22.5
21 21.09 ЮВ 1 1200 м в посл. час туман ?/? +16.3 +16.3 100 +17 +17 1013.3 1013.0
00 22.09 ЮЗ 1 18 км 9/9 100 м
[]
+17.9 +17.9 100 +19 +19 1015.1 1014.3 0.1
03 22.09 З 1 20 км 9/9 100 м
[]
+20.4 +19.1 92 +25 +27 комфорт 1014.6 1015.0
06 22.09 ЮЗ 1 15 км 9/9 100 м
[]
+19.5 +18.8 96 +23 +25 комфорт 1013.5 1014.0 +15.6
09 22.09 Ю 1 н/о слабый дождь ?/? +18.3 +18.3 100 +20 +20 1014.1 1014.0
12 22.09 штиль 0 21 км {дождь} 10/10 100 м
[]
+18.0 +18.0 100 +18 +18 1014.7 886.1 0.6
18 22.09 З 1 21 км ?/? +18.7 +18.7 100 +21 +21 комфорт 1014.1 1014.0 +21.8
21 22.09 Ю 1 21 км ?/? +18.2 +18.2 100 +20 +20 1014.4 1014.0
00 23.09 Ю 3 19 км в посл. час туман 10/10 300 м
[]
+18.8 +18.8 100 +20 +20 1015.7 887.2
03 23.09 ЮЗ 1 15 км 10/10 100 м
[]
+21.9 +20.9 94 +28 +28 душно 1015.5 844.5
06 23.09 З 1 14 км 9/9 100 м
[]
+22.2 +21.0 93 +29 +30 очень
душно
1014.0 886.5 +17.4
09 23.09 Ю 1 15 км 8/8 300 м
[]
+21.5 +20.5 94 +27 +27 душно 1013.3 1013.0
12 23.09 Ю 2 16 км 6/6 300 м
[]
+20.0 +20.0 100 +24 +24 комфорт 1014.2 1014.0
18 23.09 Ю 2 13 км ?/? +20.0 +20.0 100 +24 +24 комфорт 1012.1 1012.0 +23.4
21 23.09 Ю 4 13 км ?/? +20.2 +20.2 100 +24 +24 комфорт 1011.6 1012.0
00 24.09 Ю 5 12 км 8/8 300 м
[]
+22.2 +22.0 99 +29 +30 очень
душно
1012.1 1012.0
03 24.09 Ю 4 13 км 9/9 300 м
[]
+24.4 +22.8 91 +32 +33 очень
душно
1011.6 1012.0
06 24.09 ЮЗ 4 15 км 9/9 300 м
[]
+25.8 +21.9 79 +33 +34 очень
душно
1009.6 1010.8 +19.6
09 24.09 Ю 4 15 км 9/9 300 м
[]
+23.3 +22.1 93 +32 +32 очень
душно
1010.1 1010.0
12 24.09 ЮЗ 5 19 км 9/9 300 м
[]
+22.9 +20.1 84 +30 +30 очень
душно
1010.5 1011.0
18 24.09 Ю 5 9000 м ?/? +21.8 +21.8 100 +28 +28 душно 1009.1 1009.0 +26.0
21 24.09 Ю 9 16 км ?/? +21.8 +21.8 100 +28 +28 душно 1009.5 1010.0
00 25.09 Ю 5 18 км 9/9 200 м
[]
+23.6 +20.9 85 +30 +30 очень
душно
1010.2 1010.0
03 25.09 ЮЗ 3 19 км 9/9 200 м
[]
+26.1 +20.2 70 +32 +33 очень
душно
1010.4 1010.0
06 25.09 З 2 15 км 9/9 200 м
[]
+25.8 +23.5 87 +35 +36 очень
душно
1009.0 1009.0 +21.4
09 25.09 Ю 2 14 км 9/9 200 м
[]
+23.8 +23.5 98 +32 +32 очень
душно
1009.4 1009.0
12 25.09 Ю 4 16 км ясно +22.3 +22.3 100 +30 +30 очень
душно
1010.5 1011.0
18 25.09 Ю 3 20 км ?/? +22.4 +21.7 96 +30 +30 очень
душно
1009.6 1010.0 +27.3
21 25.09 Ю 3 21 км ?/? +22.5 +21.7 95 +30 +30 очень
душно
1010.5 1011.0
00 26.09 ЮЗ 4 20 км 9/9 300 м
[]
+23.2 +21.3 89 +31 +31 очень
душно
1012.1 885.8

 

Местоположение метеостанции Lu Shan (Китай): широта 29.58 долгота 115.98 высота над уровнем моря 1165 м.

В архиве по умолчанию представлена погода в Lu Shan за последнюю неделю. Архивные данные за месяц целиком и за предыдущие месяцы, начиная с января 2011 года, Вы можете получить, выбрав интересующий диапазон дат из раскрывающегося списка и нажав кнопку "Ввод!".

Внимание! Время в таблицах - всемирное. Для получения местного времени необходимо прибавить поправку, которая в Lu Shan равна 8 ч.

Смотрите также архив погоды в соседних городах и на ближайших метеорологических станциях:

Погода в Nanchang (Китай) (109 км)
Погода в Jingdezhen (Китай) (122 км)
Погода в Anqing (Китай) (148 км)
Погода в Xiushui (Китай) (149 км)
Погода в Macheng (Китай) (203 км)
Погода в Huoshan (Китай) (205 км)
Погода в Wuhan (Китай) (212 км)
Погода в Huang Shan (Китай) (218 км)
Погода в Nancheng (Китай) (232 км)
Погода в Yichun (Китай) (252 км)

Пояснения к столбцам:

Ветер - указаны скорость ветра в м/с - средняя за 10 мин, порывы в срок и между сроками (в фигурных скобках) и направление, откуда дует ветер: С - северный, СВ - северо-восточный, В - восточный, ЮВ - юго-восточный, Ю - южный, ЮЗ - юго-западный, З - западный, СЗ - северо-западный.
Видимость - горизонтальная дальность видимости в метрах или километрах. При видимости от 1 до 10 км при отсутствии осадков обычно наблюдается дымка, при ухудшении видимости до 1 км и менее - туман. В сухую погоду видимость может ухудшаться дымом, пылью или мглою.
Явления - указаны атмосферные явления, наблюдавшиеся в срок или в последний час перед сроком; фигурными скобками обозначены явления, наблюдавшиеся между сроками (за 1-3 часа до срока); квадратными скобками обозначены град или гололедные отложения с указанием их диаметра в мм.
Облачность - указаны через наклонную черту общая и нижняя облачность в баллах и высота нижней границы облаков в метрах; квадратными скобками обозначены формы облаков: Ci - перистые, Cs - перисто-слоистые, Cc - перисто-кучевые, Ac - высококучевые, As - высокослоистые, Sc - слоисто-кучевые, Ns - слоисто-дождевые, Cu - кучевые, Cb - кучево-дождевые. Подробнее классификацию облаков см. в Атласе облаков (PDF).
T - Температура воздуха - температура, измеренная на высоте 2 м над землей.
Td - Температура точки росы - температура, при понижении до которой содержащийся в воздухе водяной пар достигнет насыщения.
f - Относительная влажность воздуха - влажноcть воздуха, измеренная на высоте 2 м над землей.
Te - Эффективная температура - температура, которую ощущает одетый по сезону человек в тени. Характеристика душности погоды. При расчете учитывается влияние влажности воздуха и скорости ветра на теплоощущения человека.
Tes - Эффективная температура на солнце - температура, которую ощущает человек, с поправкой на солнечный нагрев. Характеристика знойности погоды. Зависит от высоты солнца над горизонтом, облачности и скорости ветра. Ночью, в пасмурную погоду, а также при ветре 12 м/с и более поправка равна нулю.
P - Атмосферное давление - приведенное к уровню моря атмосферное давление.
Po - Атмосферное давление - измеренное на уровне метеостанции атмосферное давление.
Tmin - Минимальная температура - минимум температуры воздуха на высоте 2 м над землей.
Tmax - Максимальная температура - максимум температуры воздуха на высоте 2 м над землей.
R - Количество осадков - Количество выпавших осадков за период времени, мм. При наведении курсора мыши на число - период времени, за который выпало указанное количество осадков.
R24 - Количество осадков - Количество выпавших осадков за 24 часа, мм.
S - Снежный покров - Высота снежного покрова, см. При наведении курсора мыши на число - состояние снежного покрова и степень покрытия местности в баллах.